Location: Unspecified
(0.0000°N, 0.0000°E)
Time: 00:45:33
(UTC+00:00)

Vanguard 1 Rocket - All Passes

Search period start: 16 September 2019 00:00
Search period end: 26 September 2019 00:00
Orbit: 652 x 4225 km, 34.3° (Epoch: 15 September)

Date Brightness Start Highest point End Pass type
(mag) Time Alt. Az. Time Alt. Az. Time Alt. Az.
16 Sep - 02:21:45 10° NNW 02:25:19 23° NE 02:29:12 10° E visible
16 Sep - 04:45:54 10° W 04:50:22 32° SSW 04:57:07 10° SSE visible
16 Sep - 07:16:50 10° SSW 07:19:49 12° S 07:23:20 10° S daylight
16 Sep - 09:46:37 10° SSW 09:55:11 15° SSE 10:06:10 10° SE daylight
16 Sep - 12:12:43 10° SSW 12:32:26 38° SSE 12:55:05 10° E daylight
16 Sep - 14:41:20 10° SW 15:07:33 81° SE 15:29:01 10° NE daylight
16 Sep - 17:16:34 10° WSW 17:40:02 45° NW 17:55:18 10° NNE daylight
16 Sep - 20:06:46 10° NW 20:11:33 12° NNW 20:15:36 10° NNW visible
17 Sep - 03:34:42 10° WNW 03:39:05 69° SW 03:45:05 10° SE visible
17 Sep - 06:02:58 10° SW 06:06:20 14° SSW 06:10:35 10° SSE daylight
17 Sep - 08:36:24 10° S 08:39:05 11° S 08:42:02 10° SSE daylight
17 Sep - 11:00:53 10° SSW 11:15:56 26° SSE 11:35:23 10° ESE daylight
17 Sep - 13:27:42 10° SW 13:51:35 61° SE 14:15:09 10° ENE daylight
17 Sep - 15:59:13 10° WSW 16:25:20 65° NW 16:44:04 10° NE daylight
17 Sep - 18:41:43 10° W 18:57:13 23° NW 19:07:52 10° NNE visible
18 Sep - 02:24:07 10° NW 02:28:20 42° NE 02:32:57 10° ESE visible
18 Sep - 04:50:03 10° WSW 04:53:51 20° SSW 04:59:00 10° SSE visible
18 Sep - 09:49:54 10° SSW 09:59:34 17° SSE 10:12:16 10° ESE daylight
18 Sep - 12:15:08 10° SSW 12:35:29 45° SE 12:59:16 10° ENE daylight
18 Sep - 14:43:54 10° SW 15:09:56 87° NW 15:31:50 10° NE daylight
18 Sep - 17:20:36 10° W 17:42:43 37° NW 17:57:44 10° NNE daylight
19 Sep - 01:14:15 10° N 01:17:18 16° NNE 01:20:08 10° ENE night (unlit)
19 Sep - 03:38:07 10° WNW 03:42:15 38° SSW 03:47:39 10° SE visible
19 Sep - 08:41:16 10° S 08:43:39 10° SSE 08:46:14 10° SSE daylight
19 Sep - 11:03:28 10° SSW 11:19:28 31° SSE 11:40:35 10° E daylight
19 Sep - 13:30:08 10° SW 13:54:05 72° SE 14:18:18 10° ENE daylight
19 Sep - 16:02:26 10° WSW 16:27:46 55° NW 16:46:35 10° NE daylight
19 Sep - 18:47:37 10° WNW 19:00:42 19° NNW 19:10:12 10° N visible
20 Sep - 02:26:54 10° NW 02:31:22 81° NE 02:36:12 10° ESE visible
20 Sep - 04:55:14 10° SW 04:57:27 12° SSW 05:00:03 10° S visible
20 Sep - 09:52:42 10° SSW 10:03:39 20° SSE 10:18:29 10° ESE daylight
20 Sep - 12:17:33 10° SW 12:38:13 53° SE 13:03:00 10° ENE daylight
20 Sep - 14:46:40 10° WSW 15:12:18 75° NW 15:34:28 10° NE daylight
20 Sep - 17:25:11 10° W 17:45:41 31° NW 18:00:08 10° NNE daylight
21 Sep - 01:16:10 10° NNW 01:20:31 29° NNE 01:24:22 10° E night (unlit)
21 Sep - 03:42:02 10° W 03:45:32 22° SSW 03:49:48 10° SSE visible
21 Sep - 08:43:58 10° S 08:48:05 11° SSE 08:52:51 10° SE daylight
21 Sep - 11:05:56 10° SSW 11:22:37 37° SE 11:45:15 10° E daylight
21 Sep - 13:32:40 10° SW 13:56:28 84° SE 14:21:11 10° NE daylight
21 Sep - 16:06:04 10° WSW 16:30:22 46° NW 16:49:01 10° NNE daylight
21 Sep - 18:54:00 10° WNW 19:04:34 15° NNW 19:12:38 10° N visible
22 Sep - 00:05:56 10° N 00:09:00 14° NNE 00:11:36 10° ENE night (unlit)
22 Sep - 02:30:02 10° WNW 02:34:26 53° SW 02:39:05 10° SE visible
22 Sep - 09:55:15 10° SSW 10:07:20 24° SSE 10:24:21 10° ESE daylight
22 Sep - 12:20:01 10° SW 12:40:44 63° SE 13:06:21 10° ENE daylight
22 Sep - 14:49:42 10° WSW 15:14:42 64° NW 15:36:59 10° NE daylight
22 Sep - 17:30:20 10° W 17:49:00 26° NNW 18:02:37 10° NNE daylight
23 Sep - 01:18:37 10° NW 01:23:41 53° NE 01:27:58 10° ESE night (unlit)
23 Sep - 03:46:54 10° SW 03:48:55 13° SSW 03:51:09 10° S visible
23 Sep - 08:46:09 10° S 08:52:15 13° SSE 08:59:54 10° SE daylight
23 Sep - 11:08:22 10° SSW 11:25:26 44° SE 11:49:23 10° ENE daylight
23 Sep - 13:35:23 10° SW 13:58:49 85° NW 14:23:52 10° NE daylight
23 Sep - 16:10:08 10° W 16:33:13 38° NW 16:51:27 10° NNE daylight
23 Sep - 19:00:30 10° NW 19:08:47 13° NNW 19:15:26 10° N visible
24 Sep - 00:07:25 10° NNW 00:12:27 24° NNE 00:16:15 10° E night (unlit)
24 Sep - 02:33:37 10° W 02:37:32 28° SW 02:41:34 10° SSE visible
24 Sep - 09:57:40 10° SSW 10:10:37 29° SE 10:29:39 10° E daylight
24 Sep - 12:22:33 10° SW 12:43:07 74° SE 13:09:22 10° ENE daylight
24 Sep - 14:53:03 10° WSW 15:17:15 54° NW 15:39:24 10° NE daylight
24 Sep - 17:36:02 10° WNW 17:52:43 22° NNW 18:05:15 10° NNE daylight
24 Sep - 22:56:16 10° NNW 23:00:23 15° NNE 23:03:37 10° NE night (unlit)
25 Sep - 01:21:26 10° NW 01:26:46 82° SW 01:31:08 10° SE night (unlit)
25 Sep - 08:48:15 10° S 08:56:05 16° SSE 09:06:39 10° ESE daylight
25 Sep - 11:10:50 10° SW 11:28:01 53° SE 11:53:03 10° ENE daylight
25 Sep - 13:38:18 10° WSW 14:01:13 73° NW 14:26:22 10° NE daylight
25 Sep - 16:14:43 10° W 16:36:25 32° NNW 16:53:55 10° NNE daylight
25 Sep - 19:06:24 10° NW 19:13:16 12° NNW 19:18:55 10° N visible
25 Sep - 21:44:44 10° N 21:47:22 11° N 21:49:40 10° NNE visible
